GFSMA_prec_radar_159.txt.gz
Reflectivity
-20 -20 -20 -20 8 4 1 2 9 10 13 -2 7 -20 -20 -20 -17 -20 -20 16 15 7 6 -0 10 -1 13 -1 8 15 4 -20 -20 18 -20 -20 -20 -20 -20 -20 -20 -20 -20
-20 -20 -20 -20 -20 -19 -18 -10 11 13 4 9 8 -19 -20 -20 -20 -20 -20 -9 -14 -13 -15 -4 11 16 15 8 6 14 12 17 13 -7 -17 -20 -20 -20 -20 -20 -20 -15 -15
-20 -20 -20 -20 -20 -20 -20 -20 -20 -20 -20 -20 -20 -20 -20 -20 -20 -20 -20 -20 -20 -20 -20 -20 -19 8 15 13 10 14 12 11 15 17 20 10 -12 -7 26 30 -19 -20 26
-20 -20 -20 -20 -20 -20 -20 -20 -20 -20 -20 -20 -20 -20 -20 -20 -20 -20 -20 -20 -20 -20 -20 -20 -20 -20 -11 4 11 12 14 13 -6 10 15 18 22 11 3 -15 -17 30 31
-20 -20 -20 -20 -20 -20 -20 -20 -20 -20 -20 -20 -20 -20 -20 -20 -20 -20 -20 -20 -20 -20 -20 -20 -20 -20 -20 -20 -7 1 3 2 9 -1 7 10 16 18 20 16 18 -6 15
-20 -20 -20 -20 -20 -20 -20 -20 -20 -20 -20 -20 -20 -20 -20 -20 -20 -20 -20 -20 -20 -20 -20 -20 -20 -20 -20 -20 -19 -14 -19 -11 4 5 -2 -5 1 2 -0 11 22 21 13
-20 -20 -20 -20 -20 -20 -20 -20 -20 -20 -20 -20 -20 -20 -20 -20 -20 -20 -20 -20 -20 -20 -20 -20 -20 -20 -20 -20 -20 -20 -17 -20 -20 -20 -8 -8 -11 -6 -4 -18 8 17 13
-20 -20 -20 -20 -20 -20 -20 -20 -20 -20 -20 -20 -20 -20 -20 -20 -20 -20 -20 -20 -20 -20 -20 -20 -20 -20 -20 -20 -20 -20 -20 -20 -20 -20 -18 0 -5 -3 6 -2 -7 11 12
-20 -20 -20 -20 -20 -20 -20 -20 -20 -20 -20 -20 -20 -20 -20 -20 -20 -20 -20 -20 -20 -20 -20 -20 -20 -20 -20 -20 -20 -20 -20 -20 -20 -20 -17 -1 9 -3 -11 -0 1 -8 4
-20 -20 -20 -20 -20 -20 -20 -20 -20 -20 -20 -20 -20 -20 -20 -20 -20 -20 -20 -20 -20 -20 -20 -20 -20 -20 -20 -20 -20 11 10 -20 -20 -20 -20 11 8 14 10 11 9 13 11
-20 -20 -20 -20 -20 -20 -20 -20 -20 -20 -20 -20 -20 -20 -20 -20 -20 -20 -20 -20 -20 -20 -20 -20 -20 -20 -20 -20 -20 5 0 -8 -14 9 14 8 19 18 15 15 15 14 12
-20 -20 -20 -20 -20 -20 -20 -20 -20 -20 -20 -20 -20 -20 -20 -20 -20 -20 -20 -20 -20 -20 -20 -20 -20 -20 -20 -20 -20 -9 14 5 15 5 5 10 13 15 16 19 17 16 14
-20 -20 -20 -20 -20 -20 -20 -20 -20 -20 -20 -20 -20 -20 -20 -20 -20 -20 -20 -20 -20 -20 -20 -20 -20 -20 -20 -20 -20 -17 14 9 12 4 -6 -4 5 12 13 14 19 21 19
-20 -20 -20 -20 -20 -20 -20 -20 -20 -20 -20 -20 -20 -19 -20 -20 -20 -20 -20 -20 -20 -20 -20 -20 -20 -20 -20 -20 -20 -2 -4 5 2 -3 2 -2 7 11 14 11 14 16 19
-20 -20 -20 -20 -20 -20 -20 -20 -20 -20 -20 -20 -20 -18 -14 -20 -20 -20 -20 -20 -20 -20 -20 -20 -20 -20 -20 -20 -20 -20 -3 -20 -6 11 -4 -15 7 7 8 7 10 10 12
4 -3 -17 -20 -20 -20 -20 -20 -18 -20 -16 -10 2 0 -5 -15 -20 -20 -20 -20 -20 -20 -20 -20 -20 -20 -20 -20 -20 -20 -20 -20 -1 7 10 -20 -18 5 3 2 4 11 12
-20 -20 5 9 8 6 4 2 -1 -8 -9 -2 3 5 -19 -20 -20 -20 -20 -20 -20 -20 -20 -20 -20 -20 -20 -20 -20 -20 -20 -20 -20 -4 9 -12 -20 -20 -1 4 -1 3 6
-20 -20 -15 -2 9 14 14 13 8 7 8 9 17 14 -12 -20 -20 -20 -20 -20 -20 -20 -20 -20 -20 -20 -20 -20 -20 -20 -20 -20 -20 -20 -18 1 2 -20 -20 -1 1 -6 5
-20 -20 -20 -8 15 21 20 11 11 13 6 8 28 13 -18 -20 -20 -20 -20 -20 -20 -20 -20 -20 -20 -20 -20 -20 -20 -20 -20 -20 -20 2 -2 7 8 7 -20 3 6 1 -6
-20 -18 -2 -16 -7 16 22 12 15 15 24 19 22 5 -1 -10 -20 -20 -20 -20 -20 -20 -20 -20 -20 -20 -20 -20 -20 -20 -20 -20 -20 -20 -9 -16 7 3 -20 4 5 3 10
-8 -16 -18 -12 -4 7 -1 21 17 20 11 17 13 6 1 -2 -17 -20 -20 -20 -20 -20 -20 -20 -20 -20 -20 -20 -20 -20 -20 -20 -20 -20 -20 -20 -8 -20 -18 -3 4 8 9
22 9 5 9 9 7 28 27 18 13 15 14 9 1 2 -11 -20 -20 -20 -20 -20 -20 -20 -20 -20 -20 -20 -20 -20 -20 -20 -20 -20 -20 -20 -20 -20 -1 -15 -7 5 3 8
32 28 18 25 18 21 24 19 20 13 19 12 -2 4 1 -20 -20 -20 -20 -20 -20 -20 -20 -20 -20 -20 -20 -20 -20 -20 -20 -20 -20 -20 -20 -20 -20 -20 -20 -18 -20 -2 -11
25 25 21 16 21 24 14 4 12 14 17 12 3 -2 -6 -20 -20 -20 -20 -20 -20 -20 -20 -20 -20 -20 -20 -20 -20 -20 -20 -20 -20 -20 -20 -20 -20 -20 -20 -20 -20 4 -20
20 22 25 25 21 8 8 14 16 11 4 7 2 -3 -12 -20 -20 -20 -20 -20 -20 -20 -20 -20 -20 -20 -20 -20 -20 -20 -20 -20 -20 -20 -20 -20 -20 -20 -20 -20 -20 -20 -19
19 17 22 24 16 8 15 14 12 11 -1 5 6 -7 -20 -20 -20 -20 -20 -20 -20 -20 -20 -20 -20 -20 -20 -20 -20 -20 -20 -20 -20 -20 -20 -20 -20 -20 -20 -20 -20 -20 -20

GFSMA_prec_radar_162.txt.gz
Reflectivity
-20 -20 -20 -20 -20 -20 -20 -8 12 10 9 -14 -4 -18 -0 6 -2 13 -3 3 -18 -14 14 -1 15 9 6 13 3 -8 5 14 14 12 -1 -1 4 16 10 1 -11 -20 -20
-20 -20 -20 -20 -20 -20 -20 -20 -3 -6 8 10 0 7 15 -12 5 13 -16 -3 7 9 8 9 1 13 6 13 5 12 10 1 11 14 15 12 8 9 13 -1 29 31 30
-20 -20 -20 -20 -20 -20 -20 -20 -20 -18 6 6 9 4 -0 -13 -20 -7 -19 -20 -1 -5 -18 -20 -20 3 2 11 -18 1 -5 5 -7 0 12 16 16 9 10 10 18 -4 28
-20 -20 -20 -20 -20 -20 -20 -20 -20 -20 -20 -20 -20 -20 -20 -20 -20 -20 -20 -20 -20 -20 -20 -20 -20 -20 -20 -7 1 10 7 -7 -20 -9 12 10 4 0 10 16 8 12 17
-20 -20 -20 -20 -20 -20 -20 -20 -20 -20 -20 -20 -20 -20 -20 -20 -20 -20 -20 -20 -20 -20 -20 -20 -20 -20 -20 -14 2 1 0 -20 -20 -20 -20 -20 -5 -2 10 2 -3 6 21
-20 -20 -20 -20 -20 -20 -20 -20 -20 -20 -20 -20 -20 -20 -20 -20 -20 -20 -20 -20 -20 -20 -20 -20 -20 -20 -20 -20 -20 -20 -20 -20 -20 -20 -20 -20 -20 -20 -20 -2 6 9 6
-20 -20 -20 -20 -20 -20 -20 -20 -20 -20 -20 -20 -20 -20 -20 -20 -20 -20 -20 -20 -20 -20 -20 -20 -20 -20 -20 -20 -20 -13 -4 -20 -20 -20 -20 -20 -20 -20 -20 -15 -20 -20 -3
-20 -20 -20 -20 -20 -20 -20 -20 -20 -20 -20 -20 -20 -20 -20 -20 -20 -20 -20 -20 -20 -20 -20 -20 -20 -20 -20 -20 -20 -20 -20 -20 -20 -10 -19 -10 -9 5 -10 -17 -17 -12 8
-20 -20 -20 -20 -20 -20 -20 -20 -20 -20 -20 -20 -20 -20 -20 -20 -18 -19 7 -20 -20 -20 -20 -20 -20 -20 -20 -20 -20 -20 -20 -20 -20 2 14 11 13 10 15 18 8 5 -1
-20 -20 -20 -20 -20 -20 -20 -20 -20 -20 -20 -20 -20 -20 -20 -20 -20 -20 -20 -20 -20 -20 -20 -20 -20 -20 -20 -20 -20 -20 -20 -20 -20 -19 -6 -1 9 9 4 13 16 17 18
-20 -20 -20 -20 -20 -20 -20 -20 -20 -20 -20 -20 -20 -20 -20 -20 -20 -20 -20 -20 -20 -20 -20 -20 -20 -20 -20 -20 -20 -3 7 -1 7 -20 0 6 9 14 13 15 6 12 14
-20 -20 -20 -20 -20 -20 -20 -20 -20 -20 -20 -20 -20 -20 -20 -20 -20 -20 -20 -20 -20 -20 -20 -20 -20 -20 -20 -20 -20 3 2 4 -13 -0 6 7 13 9 10 15 8 7 14
-20 -20 -20 -20 -20 -20 -20 -20 -20 -20 -20 -20 -20 -20 -20 -20 -20 -20 -20 -20 -20 -20 -20 -20 -20 -20 -20 -20 -20 -5 4 11 -6 8 -13 9 14 6 9 8 9 6 5
-20 -20 -20 -20 -20 -20 -20 -20 -20 -20 -20 -20 -20 -20 -20 3 10 3 -3 -11 -20 -20 -20 -20 -20 -20 -20 -20 -20 7 -3 -2 5 6 -19 12 14 7 7 12 8 8 9
-20 -20 -20 -20 -20 -20 -20 -20 -20 -20 -20 -20 -20 -20 -20 -20 -3 7 0 -15 -20 -20 -20 -20 -20 -20 -20 -20 -20 -5 -20 7 11 -1 -17 -20 -15 -5 3 6 12 8 8
-17 -20 -20 -20 -20 -20 -20 -20 -20 -20 -17 -13 -4 -15 -16 -5 -20 5 4 -7 3 -20 -20 -20 -20 -20 -20 -20 -20 -20 -20 -20 12 -16 -12 -20 -20 -20 -12 10 11 9 7
-20 -18 -18 -20 -20 -20 -20 -14 -7 -3 -8 -3 0 -1 6 -6 2 11 15 -10 2 -20 -20 -20 -20 -20 -20 -20 -20 -20 -20 -20 -13 10 -13 8 -20 -20 -1 7 8 -7 -2
7 -20 -6 -12 -20 -20 -20 -19 5 10 12 10 13 9 5 16 17 16 17 -15 -20 -20 -20 -20 -20 -20 -20 -20 -20 -20 -20 -20 -20 0 10 7 -5 -20 -8 5 2 4 4
18 11 7 -18 -17 -20 -17 -20 -20 -16 -1 26 15 18 27 15 14 16 7 -20 -20 -20 -20 -20 -20 -20 -20 -20 -20 -20 -20 -20 -20 -18 15 9 -20 -20 -20 -10 9 10 6
7 11 11 11 22 10 -20 -20 -20 -20 -20 13 17 17 14 14 14 6 6 -9 -14 -20 -20 -20 -20 -20 -20 -20 -20 -20 -20 -20 -20 -20 -16 -10 -20 -20 -2 0 1 9 6
22 20 15 12 27 16 -14 -18 7 -1 12 15 19 6 10 9 8 -1 -5 -2 -9 -16 -20 -20 -20 -20 -20 -20 -20 -20 -20 -20 -20 -20 -20 -20 -13 -16 -20 -11 -1 7 2
20 25 27 30 10 15 8 4 -6 19 18 16 -5 8 3 -4 -5 -7 -1 -8 -10 -0 -20 -20 -20 -20 -20 -20 -20 -20 -20 -20 -20 -20 -20 -20 -20 -20 -17 -20 -10 2 -2
24 28 15 10 8 17 28 27 24 19 16 14 14 2 -10 -15 -15 -0 3 -8 -18 -20 -20 -20 -20 -20 -20 -20 -20 -20 -20 -20 -20 -20 -20 -20 -20 -20 -20 -20 -12 -3 -2
28 14 9 14 17 18 32 32 20 24 18 16 7 -1 -16 -2 -3 -5 -15 -19 -20 -20 -20 -20 -20 -20 -20 -20 -20 -20 -20 -20 -20 -20 -20 -20 -19 -20 -20 -20 2 -18 -3
24 14 -18 16 17 16 31 20 16 15 16 4 1 -0 5 1 -0 -20 -20 -8 -12 -20 -20 -20 -20 -20 -20 -20 -20 -20 -20 -20 -20 -20 -20 -20 -20 -20 -20 -20 -20 -15 -20
6 5 16 14 20 11 15 15 17 20 9 6 -0 -11 5 -1 -0 -2 -6 -19 -20 -20 -20 -20 -20 -20 -20 -20 -20 -20 -20 -20 -20 -20 -20 -20 -20 -20 -20 -20 -20 -20 -20

GFSMA_prec_radar_165.txt.gz
Reflectivity
-20 -20 -20 -20 -20 -20 -5 -16 -9 9 5 9 -2 -7 1 -10 2 -12 -8 5 -20 3 14 9 10 4 7 4 10 12 -2 10 13 9 3 5 11 12 7 -4 -10 -14 -20
-20 -20 -20 -20 -20 -20 -20 -20 -20 2 8 -14 2 -18 1 -6 -20 -11 -5 9 18 3 5 -2 10 11 12 12 9 -13 -15 -14 -0 -5 12 12 11 7 11 11 12 14 16
-20 -20 -20 -20 -20 -20 -20 -20 -20 -20 -20 -20 11 -5 -17 -20 -20 -17 2 6 10 12 12 -11 1 8 13 15 18 13 -9 -14 -9 5 4 -2 8 13 14 12 11 2 9
-20 -20 -20 -20 -20 -20 -20 -20 -20 -20 -20 -20 -20 -20 -11 -20 -16 -20 -20 -20 -20 -20 6 11 -0 -20 4 10 2 -3 -3 -20 -20 -20 -20 -20 -20 6 8 6 3 -14 -5
-20 -20 -20 -20 -20 -20 -20 -20 -20 -20 -20 -20 -20 -20 -20 -15 -20 -20 -20 -20 -20 -20 -20 -20 -20 -20 -20 -12 7 -17 -20 -20 -20 -20 -20 -20 -20 -20 -20 -16 -1 9 0
-20 -20 -20 -20 -20 -20 -20 -20 -20 -20 -20 -20 -20 -20 -20 -20 -20 -20 -20 -20 -20 -20 -20 -20 -20 -20 -20 -20 4 -4 -7 -10 -20 -20 -20 -20 -20 -20 -20 -20 -20 -20 -20
-20 -20 -7 -20 -20 -20 -20 -20 -20 -20 -20 -20 -20 -20 -20 -20 -20 -20 -20 -20 -20 -20 -20 -20 -20 -20 -20 -20 -20 -20 -20 -20 -20 8 10 -2 -18 -20 -11 -20 -20 3 -12
-20 -20 -20 -20 -20 -20 -20 -20 -20 -20 -20 -20 -20 -20 -20 -2 5 8 2 4 -15 -20 -20 -20 -20 -20 -20 -20 -20 -20 -20 -20 -20 -13 -20 -10 12 -15 11 10 12 6 6
-20 -20 -20 -20 -20 -20 -20 -20 -20 -20 -20 -20 -20 -20 -20 -20 -20 -16 -2 2 1 -20 -20 -20 -20 -20 -20 -20 -20 -20 -20 -20 -20 -20 -20 -18 -20 -1 -14 -18 16 7 7
-20 -20 -20 -20 -20 -20 -20 -20 -20 -20 -20 -20 -20 -20 -20 -20 -20 -20 -20 -20 -20 -20 -20 -20 -20 -20 -20 -20 -20 -20 -20 -20 -20 -11 -14 -0 -2 9 4 10 14 13 11
-20 -20 -20 -20 -20 -20 -20 -20 -20 -11 -7 -17 -20 -20 -20 -20 -20 -20 -20 -20 -20 -20 -20 -20 -20 -20 -20 -20 -20 -20 -20 -20 -19 -4 6 11 18 6 4 11 6 4 12
-20 -20 -20 -20 -20 -20 -20 -20 -20 -20 -20 -20 -20 -20 -20 -20 -20 -20 -20 -20 -20 -20 -20 -20 -20 -20 -20 -20 -20 -20 -20 -20 -15 9 16 14 11 7 2 10 13 10 11
-20 -20 -20 -20 -20 -20 -20 -20 -20 -20 -20 -20 -20 -20 -20 -20 -20 -20 -20 -20 -19 -20 -20 -20 -20 -19 -20 -20 -20 -20 -20 -20 -10 -10 9 10 -4 -2 2 5 13 14 13
-13 -20 -20 -20 -20 -20 -20 -20 -20 -20 -20 -20 -14 -7 -10 -20 -20 -20 -20 -19 -15 -6 -4 -20 -20 -20 -20 -20 -20 -20 -17 -20 -5 -4 -20 -20 -18 -6 11 8 11 6 7
-18 -19 -20 -20 -20 -20 -20 -20 -20 -20 -20 -20 -18 -14 -9 -15 -20 -20 -20 -20 -20 -20 -20 -20 -20 -20 -20 -20 -18 -20 -20 5 2 5 6 -20 -20 -20 -19 -4 10 7 12
-20 -20 -20 -20 -20 -20 -20 -20 -20 -20 -20 -20 -20 -15 -17 -5 -11 -13 -18 -20 -20 -20 -1 4 5 -20 -20 -20 -11 -20 -20 -7 0 8 12 -3 -20 -20 -7 -0 1 -8 8
-19 -6 -8 -7 -8 -20 -7 -20 -20 -20 -20 -20 -20 -18 -18 -5 3 9 6 7 0 -8 11 10 2 -20 -20 -20 -20 -20 -20 -20 -1 5 4 5 -20 -9 -2 7 9 1 8
-20 -20 -15 -7 -5 1 -1 -10 -20 -20 -20 -20 3 4 -10 -0 11 17 18 17 17 17 7 7 4 -20 -20 -20 -20 -20 -20 -20 -20 10 8 -18 -1 -14 -20 0 3 3 4
-20 -20 -20 -20 -6 0 3 -14 -4 -13 -18 -20 -20 -20 -20 -10 17 18 17 10 9 10 9 2 -12 -20 -20 -20 -20 -20 -20 -20 -20 8 -5 -17 -20 -5 -7 -1 -3 6 4
-20 -16 -6 7 4 -14 -20 0 10 8 -7 -10 -20 -20 10 12 13 3 1 12 10 6 -8 -18 -20 -20 -20 -20 -20 -20 -20 -20 -20 -20 -8 -19 -11 -20 -2 0 -9 1 8
-13 5 2 18 24 11 -20 4 15 13 6 3 -20 -9 7 12 9 -6 3 -10 -11 -10 -16 -20 -19 -20 -20 -20 -20 -20 -20 -20 -20 -20 -20 -20 -20 -20 -20 -13 -12 1 10
-20 -18 -3 15 29 16 17 20 0 -4 6 3 10 17 14 18 -11 1 -11 -20 -20 -9 -10 -20 -20 -19 -13 -20 -20 -20 -20 -20 -20 -20 -20 -19 -20 -20 -20 -20 -4 -4 2
10 -14 -5 22 25 24 -2 -19 -16 -20 -14 13 19 10 5 10 -7 -16 -20 -20 -20 -13 -4 1 -2 -13 -20 -20 -20 -20 -20 -20 -20 -20 -20 -20 -20 -20 -20 -6 -20 -3 -7
8 -20 10 18 24 21 12 6 1 14 16 20 19 12 17 16 6 -20 -20 -20 -20 -4 2 0 -5 -19 -20 -20 -20 -20 -20 -20 -20 -20 -20 -20 -20 -20 -20 -20 -20 -20 -11
-3 -0 6 12 16 6 21 -15 10 19 20 18 19 12 13 4 -20 -13 -12 -10 -9 -6 -16 -20 -20 -20 -20 -20 -20 -20 -20 -20 -20 -20 -20 -20 -20 -20 -20 -20 -20 -20 -20
-15 -18 -11 -3 -6 0 21 11 14 16 16 19 7 12 11 -18 -11 -5 -7 -17 -19 -17 -12 -20 -20 -20 -20 -20 -20 -20 -20 -20 -20 -20 -20 -20 -20 -20 -20 -20 -20 -20 -20

GFSMA_prec_radar_168.txt.gz
Reflectivity
-20 -20 -20 -20 -20 -20 -20 -20 -14 -16 -9 -8 7 -16 3 -14 -2 -0 -6 -6 -1 4 11 13 16 8 9 11 9 7 2 3 15 2 -8 11 4 1 24 8 5 -5 5
-20 -20 -20 -20 -20 -20 -20 -20 -20 -20 -18 6 6 -2 -17 -17 -17 -20 -20 -20 -17 -17 -13 6 7 14 8 -2 9 11 12 2 -18 9 -12 -17 10 10 8 10 6 4 1
-20 -20 -20 -20 -20 -20 -20 -20 -20 -20 -20 -19 -18 -19 -20 -19 -20 -19 -20 -20 1 -20 3 -11 -19 4 -10 6 -3 -1 5 -9 -20 -20 -20 -18 -6 -20 -14 -19 -20 6 -2
-20 -20 -20 -20 -20 -20 -20 -20 -20 -20 -20 -17 -20 -14 -4 -16 -19 -3 -20 -20 -20 -20 -7 6 5 -13 -13 9 -20 -14 -20 -20 -20 -20 -20 -20 -20 -20 -20 -20 -20 -20 -6
-20 -20 -20 -20 -20 -20 -20 -20 -20 -20 -20 -20 -20 -19 2 -20 -20 -20 -11 -20 -14 -20 -20 11 -1 -17 10 12 1 -20 -20 -20 -20 -20 -20 -20 -20 -20 -20 -20 -20 -20 3
-20 -20 -20 -20 -20 -20 -20 -20 -20 -20 -20 -20 -20 -20 -19 -13 -5 -10 -20 -20 -20 -20 -20 -20 -20 -4 -15 -20 -20 -20 -20 -20 -6 -15 -20 -20 -20 -20 -20 -20 -20 -20 -20
-20 -12 -15 -20 -20 -20 -20 -20 -20 -20 -20 -20 -20 -20 -20 -19 -20 -20 -20 -20 -20 -20 -20 -20 -20 -20 -20 -20 -20 -20 -20 -20 -20 -20 -18 -20 -20 -20 -20 -20 -19 -20 -0
11 -20 -19 -14 -17 -19 -20 -20 -20 -20 -20 -20 -20 -20 -20 -20 -19 -10 7 13 8 -10 -17 -20 -20 -20 -20 -20 -20 -20 -20 -20 -20 -20 4 -20 -9 -18 -2 5 -0 8 -1
-4 -4 -5 -8 -6 -5 -20 -20 -20 -20 -20 -20 -20 -20 -20 -20 -20 -20 7 12 7 13 -8 -20 -20 -20 -20 -20 -20 -20 -20 -20 -17 -10 -5 14 -4 12 15 7 -12 -11 -4
-14 12 -7 -20 -20 -12 7 -8 -20 -20 -20 -20 -20 -20 -20 -20 -20 -20 -20 -20 -17 1 -3 -19 -20 -20 -20 -20 -20 -20 -8 8 -20 -20 -8 11 -14 -9 -8 -6 -7 11 1
10 -20 -20 -20 -20 -20 -20 -20 -20 -20 -5 -19 -20 -14 -9 -18 -20 -20 -20 -20 -20 -20 -20 -20 -20 -20 -20 -20 -20 -20 -20 11 10 12 -19 -1 -3 -4 -2 4 10 19 17
-5 -14 -8 2 -20 -20 -20 -20 -20 -20 -20 -20 -18 -20 -20 -20 -17 -19 -14 -14 -11 -13 3 -16 -20 -20 -20 -20 -20 -20 -20 -20 -20 -5 -18 -11 -9 0 3 16 17 16 8
-20 -20 -20 -20 -20 -20 -20 -20 -20 -20 -20 -20 -20 -20 -20 -20 -20 -20 -20 -20 -20 -20 -16 9 14 4 -19 -20 -20 -20 -20 -20 -20 -20 -20 -20 -18 1 5 8 6 9 16
8 -1 -13 -5 -18 -20 -9 -1 -12 -20 -20 -20 -20 -20 -20 -20 -20 -20 -20 -20 -20 -20 -20 -20 1 -5 -12 -17 -20 -20 -20 -20 -20 -20 -20 -20 -12 -1 7 10 3 7 13
-20 -12 -20 -20 -20 -20 -20 -20 -20 -20 -20 -20 -20 -20 -20 -20 -20 -20 -20 -20 -20 -20 -20 -20 -20 -20 -20 -13 -3 2 -20 -20 -20 -20 -17 -8 -16 1 5 12 9 9 13
-20 -20 -20 -20 -20 -18 -8 -20 -20 -20 -20 -20 -20 -20 -20 -20 -20 -20 -20 -20 -20 -20 -20 -20 -20 -20 -19 9 9 -20 1 -3 -20 -20 -20 -20 -20 -14 7 11 12 11 7
-20 -20 -20 -20 -20 -20 -20 -20 -10 -7 -16 -20 -20 -20 -20 -20 -20 -20 -20 -20 -20 -20 -20 -13 -16 -11 -1 10 -20 -15 -20 -20 5 -16 -20 -20 -20 -14 -1 9 11 12 8
-20 -20 -20 -20 -20 -20 -20 -20 -20 -19 -19 -19 -18 -19 -20 -20 -20 -20 -20 -20 -20 -6 -18 -7 -16 1 -5 -20 -10 -17 -20 -20 -7 6 -20 -20 -20 -20 -3 -17 9 10 5
-20 -20 -20 1 3 9 -19 6 9 -2 -19 -20 -19 -10 -20 -11 -7 -4 -1 -19 11 -20 -20 -20 -20 -20 -20 -20 -20 -20 -20 -20 -20 4 -20 -20 -20 -11 -1 1 4 -2 -1
-20 -20 -20 -20 -13 -20 -20 14 6 -1 13 4 -20 -20 -9 -2 -4 -8 13 7 5 -19 -19 -18 -17 -20 -20 -20 -20 -20 -20 -20 -20 -20 -9 -19 -20 -13 -3 -13 -3 7 6
-20 -20 -20 -20 -6 4 -4 6 1 -15 4 7 4 -19 -20 -15 12 20 17 18 7 -20 -20 -20 -20 -20 -20 -20 -20 -20 -20 -20 -20 -20 -20 -20 -20 -20 -20 -20 -6 -2 -1
-20 -20 -20 2 12 10 23 24 2 -13 -20 -20 -20 -20 -20 -9 21 18 11 11 1 -12 -12 -20 -20 -20 -20 -20 -20 -20 -20 -12 -10 -20 -20 -20 -20 -20 -20 -20 -2 3 9
-20 -20 -19 7 12 -2 30 25 20 -20 -20 -20 -19 -18 -13 14 16 16 18 16 11 6 -10 -20 -20 -20 -20 -20 -19 -11 -14 -20 -20 -20 -20 -20 -20 -20 -20 -20 -9 -10 -0
-20 -20 -11 -4 9 19 27 15 -15 -19 -19 1 -6 5 16 12 15 17 13 17 11 -20 -20 -20 -20 -20 -20 -20 -16 -20 -20 -20 -20 -20 -20 -20 -20 -20 -20 -20 -20 -20 -12
-20 -20 -17 -13 -7 17 -2 -19 -20 -20 -20 -19 -7 11 16 14 16 16 13 9 -1 -3 -11 -20 -20 -20 -20 -15 -20 -20 -20 -20 -20 -20 -20 -20 -20 -20 -20 -20 -20 -20 -20
-20 -20 -19 -18 -13 -19 -5 -19 -17 -20 -19 -14 9 -2 -7 6 9 8 8 4 -4 -12 -7 -7 -19 -8 -7 -5 -10 -20 -20 -20 -20 -20 -20 -20 -20 -20 -20 -20 -20 -20 -20